SCP
0 0 0 0 0 0 0 0 0 0 0 0 0 0 0 0 0 0 0 0 0 0 0 0 0 0 0 0 0 0 0 0 0 0 0 0 0 0 0 0 0 0 0
0 0 0 0 0 0 0 0 0 0 0 0 0 0 0 0 0 0 0 0 0 0 0 0 0 0 0 0 0 0 0 0 0 0 0 0 0 0 0 0 0 0 0
0 0 0 0 0 0 0 0 0 0 0 0 0 0 0 0 0 0 0 0 0 0 0 0 0 0 0 0 0 0 0 0 0 0 0 0 0 0 0 0 0 0 0
0 0 0 0 0 0 0 0 0 0 0 0 0 0 0 0 0 0 0 0 0 0 0 0 0 0 0 0 0 0 0 0 0 0 0 0 0 0 0 0 0 0 0
0 0 0 0 0 0 0 0 0 0 0 0 0 0 0 0 0 0 0 0 0 0 0 0 0 0 0 0 0 0 0 0 0 0 0 0 0 0 0 0 0 0 0
0 0 0 0 0 0 0 0 0 0 0 0 0 0 0 0 0 0 0 0 0 0 0 0 0 0 0 0 0 0 0 0 0 0 0 0 0 0 0 0 0 0 0
0 0 0 0 0 0 0 0 0 0 0 0 0 0 0 0 0 0 0 0 0 0 0 0 0 0 0 0 0 0 0 0 0 0 0 0 0 0 0 0 0 0 0
0 0 0 0 0 0 0 0 0 0 0 0 0 0 0 0 0 0 0 0 0 0 0 0 0 0 0 0 0 0 0 0 0 0 0 0 0 0 0 0 0 0 0
0 0 0 0 0 0 0 0 0 0 0 0 0 0 0 0 0 0 0 0 0 0 0 0 0 0 0 0 0 0 0 0 0 0 0 0 0 0 0 0 0 0 0
0 0 0 0 0 0 0 0 0 0 0 0 0 0 0 0 0 0 0 0 0 0 0 0 0 0 0 0 0 0 0 0 0 0 0 0 0 0 0 0 0 0 0
1 0 0 0 0 0 0 0 0 0 0 0 0 0 0 0 0 0 0 0 0 0 0 0 0 0 0 0 0 0 0 0 0 0 0 0 0 0 0 0 0 0 0
0 0 0 0 0 0 0 0 0 0 0 0 0 0 0 0 0 0 0 0 0 0 0 0 0 0 0 0 0 0 0 0 0 0 0 0 0 0 0 0 0 0 0
0 0 0 0 0 0 0 0 0 0 0 0 0 0 0 0 0 0 0 0 0 0 0 0 0 0 0 0 0 0 0 0 0 0 0 0 0 0 0 0 0 0 0
0 0 0 0 0 0 1 1 1 0 0 0 0 0 0 0 0 0 0 0 0 0 0 0 0 0 0 0 0 0 0 0 0 0 0 0 0 0 0 0 0 0 0
0 0 0 0 0 0 1 1 1 1 0 0 0 0 0 0 0 0 0 0 0 0 0 0 0 0 0 0 0 0 0 0 0 0 0 0 0 0 0 0 0 0 0
0 0 0 0 0 1 1 1 1 0 0 0 0 0 0 0 0 0 0 0 0 0 0 0 0 0 0 0 0 0 0 0 0 0 0 0 0 0 0 0 0 0 0
0 0 1 1 1 1 1 1 0 0 0 0 0 0 0 0 0 0 0 0 0 0 0 0 0 0 0 0 0 0 0 0 0 0 0 0 0 0 0 0 0 0 0
0 0 0 1 1 1 1 0 0 0 0 0 0 0 0 0 0 0 0 0 0 0 0 0 0 0 0 0 0 0 0 0 0 0 0 0 0 0 0 0 0 0 0
0 0 0 0 1 1 1 0 0 0 0 0 0 0 0 0 0 0 0 0 0 0 0 0 0 0 0 0 0 0 0 0 0 0 0 0 0 0 0 0 0 0 0
0 0 0 0 1 1 1 1 0 0 0 0 0 0 0 0 0 0 0 0 0 0 0 0 0 0 0 0 0 0 0 0 0 0 0 0 0 0 0 0 0 0 0
0 0 0 0 0 1 0 0 0 0 0 0 0 0 0 0 0 0 0 0 0 0 0 0 0 0 0 0 0 0 0 0 0 0 0 0 0 0 0 0 0 0 0
0 0 0 0 0 0 0 0 0 0 0 0 0 0 0 0 0 0 0 0 0 0 0 0 0 0 0 0 0 0 0 0 0 0 0 0 0 0 0 0 0 0 0
0 0 0 0 0 0 0 0 0 0 0 0 0 0 0 0 0 0 0 0 0 0 0 0 0 0 0 0 0 0 0 0 0 0 0 0 0 0 0 0 0 0 0
0 0 0 0 0 0 0 0 0 0 0 0 0 0 0 0 0 0 0 0 0 0 0 0 0 0 0 0 0 0 0 0 0 0 0 0 0 0 0 0 0 0 0
0 0 0 0 0 0 0 0 0 0 0 0 0 0 0 0 0 0 0 0 0 0 0 0 0 0 0 0 0 0 0 0 0 0 0 0 0 0 0 0 0 0 0
0 0 0 0 0 0 0 0 0 0 0 0 0 0 0 0 0 0 0 0 0 0 0 0 0 0 0 0 0 0 0 0 0 0 0 0 0 0 0 0 0 0 0
Wind_Speed
5 5 5 5 5 4 4 4 4 3 4 4 4 4 4 4 4 5 4 4 5 4 4 5 4 3 3 3 3 3 3 3 4 1 1 2 2 3 3 3 3 3 3
6 5 5 5 5 5 4 4 4 4 4 4 4 4 4 4 4 5 4 4 4 4 3 4 3 3 4 3 3 3 3 3 4 2 1 2 2 2 2 2 2 2 2
6 6 6 5 6 5 4 4 4 5 4 4 5 5 4 4 4 4 4 4 4 4 4 4 3 4 4 3 3 3 2 3 3 3 1 1 2 2 2 3 3 3 3
7 7 7 6 6 6 5 5 4 5 5 5 4 4 4 4 4 4 4 4 4 3 3 3 3 4 4 3 3 3 3 4 3 3 1 1 2 2 2 2 3 3 3
8 7 7 6 6 5 5 5 4 5 5 5 5 4 4 4 4 5 5 5 4 4 3 2 3 4 5 4 4 3 4 3 3 2 1 1 2 2 1 1 1 2 3
9 8 7 6 6 6 5 5 5 4 4 5 5 5 4 3 7 9 7 5 4 4 3 2 2 3 5 6 6 6 6 5 3 2 1 1 1 1 1 0 0 1 3
9 8 8 8 7 6 6 6 6 5 5 4 4 5 5 4 8 9 9 6 4 4 3 3 2 2 3 3 4 5 4 4 5 5 3 2 2 2 1 0 0 1 2
9 9 9 8 8 7 6 7 6 5 5 4 4 5 5 5 8 9 9 5 4 3 3 4 4 3 3 4 4 3 2 1 1 2 3 3 2 2 3 2 2 1 2
10 10 10 10 9 8 8 7 6 5 5 4 4 5 5 4 7 9 9 4 3 2 2 3 4 4 5 6 5 3 1 1 1 1 2 1 0 1 2 2 1 1 2
11 11 10 10 10 10 9 7 5 5 5 5 4 4 5 4 7 9 9 4 3 2 1 1 4 5 6 7 5 4 3 2 0 1 2 2 2 2 1 1 2 1 1
10 9 9 10 10 9 7 5 6 5 5 5 4 3 3 4 6 8 9 4 4 3 2 1 2 5 5 6 5 4 5 3 1 1 0 1 2 2 2 1 1 2 2
9 9 10 9 9 8 7 6 6 7 6 5 4 3 2 2 4 6 9 8 7 4 3 3 3 5 5 5 4 4 4 3 2 1 0 1 1 2 2 2 1 2 3
10 10 9 9 7 8 8 8 6 6 5 5 4 4 3 2 3 6 8 9 9 4 3 5 4 4 3 2 3 3 3 2 2 1 1 2 2 2 1 2 2 2 2
10 9 9 9 8 7 6 7 6 6 6 5 5 5 4 2 3 3 3 4 5 4 2 3 3 2 2 1 1 1 1 2 2 2 2 2 1 1 1 1 1 2 2
9 8 8 8 8 7 6 5 7 7 8 8 7 6 6 5 7 8 7 5 4 4 4 2 2 1 1 0 0 0 0 1 1 1 1 1 1 1 2 1 1 1 1
7 7 6 6 6 6 6 3 2 3 6 8 8 7 5 6 7 9 10 9 9 10 6 3 2 2 2 2 2 1 1 1 1 1 1 1 1 2 2 2 1 1 2
7 7 6 6 6 6 6 6 4 2 3 4 6 7 6 6 7 9 9 9 9 10 4 3 3 3 3 2 2 2 2 2 1 1 1 1 1 2 2 2 2 2 3
6 7 7 6 6 6 6 6 5 5 4 1 1 4 6 6 7 8 8 7 4 4 3 3 3 3 3 3 3 2 2 1 1 1 1 1 1 1 1 2 2 2 3
5 4 5 5 5 5 5 5 5 5 4 3 2 1 3 4 5 6 8 4 4 4 3 3 3 3 3 3 3 2 2 2 2 1 1 1 1 1 1 2 2 3 2
4 6 6 5 5 5 5 5 5 4 4 4 3 3 3 4 3 3 3 3 3 3 3 3 3 3 3 3 3 2 2 2 2 2 2 2 1 1 2 2 2 2 2
4 5 7 5 4 5 5 5 5 4 4 4 3 4 7 5 4 4 4 4 4 4 4 3 3 3 3 3 3 3 3 3 2 2 2 2 2 2 2 2 2 2 2
4 4 4 5 4 4 4 4 4 4 4 4 2 3 6 3 3 3 3 3 3 3 3 3 3 3 3 3 3 3 3 3 2 2 2 2 2 2 2 2 2 2 2
5 5 4 4 4 5 5 4 4 4 4 4 4 3 3 3 3 3 3 3 2 2 2 2 3 2 2 3 3 4 4 4 3 3 3 2 2 2 2 2 2 2 3
4 5 5 4 4 4 4 3 3 3 3 3 3 3 3 3 3 3 3 2 2 2 2 2 3 3 3 3 2 2 3 3 3 3 4 3 3 2 2 2 2 3 3
4 4 4 4 4 3 3 3 3 3 3 3 3 3 3 3 2 2 2 2 2 2 2 2 2 2 3 3 3 2 3 3 3 2 2 2 3 2 2 2 2 2 3
4 4 4 3 3 3 3 3 3 3 2 2 2 2 3 3 2 2 2 2 2 2 2 2 2 2 2 2 3 3 3 3 3 2 2 2 2 2 2 2 2 2 2
Wind_Direction
169 166 162 162 157 150 151 160 155 145 143 140 136 122 112 105 101 98 96 96 93 82 78 85 78 74 74 64 75 84 91 110 117 5 352 360 21 26 17 18 23 23 30
171 163 166 159 151 148 157 162 150 142 144 144 136 128 126 120 114 115 116 109 108 104 95 93 86 83 73 67 76 81 85 95 119 115 360 4 8 357 4 11 17 23 16
167 161 162 160 158 163 167 161 151 143 138 134 132 135 137 135 126 123 122 118 118 119 117 114 110 100 86 78 81 84 84 82 86 112 70 355 355 0 17 9 12 358 359
167 165 169 173 172 172 167 159 157 151 144 145 144 146 145 142 137 129 121 119 115 110 113 118 120 123 127 117 100 99 100 88 80 89 75 10 352 345 29 12 358 351 351
169 173 180 177 169 164 162 161 154 150 152 149 142 142 143 145 151 144 133 129 125 117 103 101 115 129 136 133 126 128 116 104 93 88 72 25 353 352 334 319 351 334 336
173 180 177 168 163 165 165 158 150 149 146 137 143 145 145 157 156 154 145 136 133 130 127 113 100 106 111 111 114 127 134 133 137 129 131 162 266 268 291 344 358 9 332
176 176 173 170 168 170 163 152 155 157 146 140 146 141 144 156 153 150 148 139 140 146 150 146 131 120 116 106 95 89 90 118 141 150 157 197 213 223 181 56 239 202 248
176 176 174 171 171 167 162 164 166 156 153 153 152 150 144 155 155 150 147 134 134 148 158 160 154 159 156 140 118 90 56 34 141 146 166 197 202 198 179 183 195 221 297
181 182 179 175 171 169 172 174 168 157 158 161 158 155 152 163 160 155 146 132 130 144 165 168 165 169 171 151 132 129 95 339 16 116 144 147 100 145 142 97 58 52 337
188 185 179 175 174 178 181 174 160 159 166 159 157 166 167 175 170 162 153 140 143 156 163 186 183 177 173 160 151 152 165 239 294 25 15 355 347 357 24 149 169 156 224
183 176 174 177 179 178 171 161 153 155 152 156 161 172 179 188 184 175 168 159 169 171 177 199 209 184 173 168 166 172 190 188 164 140 13 350 350 340 322 286 191 170 183
167 170 174 176 176 169 161 160 156 155 157 164 165 178 205 206 193 190 185 182 174 168 189 200 197 174 170 169 174 183 174 147 121 105 54 317 308 301 295 287 257 226 218
165 172 174 173 172 167 168 166 159 162 166 174 174 190 210 212 207 195 189 185 179 175 187 179 171 161 157 164 172 166 155 137 131 137 236 266 267 274 301 323 326 312 298
168 172 171 169 168 169 171 170 169 173 176 179 185 194 199 195 203 195 187 184 182 180 173 153 142 132 136 130 102 129 151 159 165 194 235 268 302 329 323 305 307 322 328
167 169 168 167 166 167 168 174 180 188 187 184 193 189 184 203 214 192 178 181 179 171 140 106 90 90 100 67 52 49 88 118 172 226 234 286 310 318 310 317 310 321 296
159 163 162 160 160 159 155 144 136 157 179 186 184 179 194 199 183 182 185 180 171 155 136 150 176 182 191 195 193 209 212 215 222 215 221 242 265 278 294 309 311 292 287
158 160 157 158 159 159 160 161 154 101 107 156 175 178 180 176 173 175 174 168 164 153 150 175 187 194 199 197 198 202 218 228 214 200 219 242 257 273 288 298 304 304 296
143 149 151 157 160 162 164 164 162 161 159 155 166 177 178 172 167 167 159 139 142 161 175 184 196 200 200 201 204 212 223 218 200 208 220 233 239 251 274 287 287 285 291
139 142 146 147 151 153 151 149 151 158 158 148 127 121 158 149 140 145 144 147 169 184 193 199 201 198 199 199 201 200 197 198 201 203 213 223 229 232 262 277 282 291 294
135 138 139 143 142 138 140 145 151 156 157 156 167 168 142 121 125 147 159 167 175 187 190 197 202 200 198 196 194 192 195 201 204 211 225 231 233 230 246 260 269 277 278
129 136 134 134 139 145 149 156 159 159 163 170 179 165 157 158 171 173 177 185 192 198 199 199 200 199 199 194 192 195 200 211 212 214 223 231 232 244 252 255 263 267 278
135 135 138 139 139 141 145 147 148 154 160 162 149 142 161 157 167 173 184 194 197 198 191 183 193 201 201 198 194 196 204 213 217 219 226 234 239 245 251 260 270 274 276
131 131 128 128 129 135 137 137 146 154 159 162 156 150 163 181 187 188 194 198 195 193 184 178 188 206 209 202 195 192 201 212 214 208 211 225 234 240 245 256 262 271 275
127 131 133 133 131 136 144 149 153 156 158 162 163 167 175 185 190 194 198 194 188 191 189 189 196 204 204 199 197 200 205 208 201 203 205 215 227 235 243 255 261 266 273
124 128 132 137 141 145 146 145 148 155 157 162 168 173 177 177 183 192 195 189 186 192 198 198 200 198 198 197 196 202 203 201 203 200 199 205 220 231 239 254 265 275 278
121 123 125 127 132 138 141 145 148 150 155 163 169 173 176 180 185 188 186 182 188 195 198 200 197 186 186 191 194 190 188 191 195 197 184 190 211 234 244 255 264 272 279